This demonstration page uses our WeatherBlox Daily Observations layout. Learn more.

Left ArrowRight Arrow

38.20091, -84.87328

Hourly Observations for August 16, 2021

Temp ( °F °C ) Dew Point ( °F °C ) Humidity (%) Winds ( mph kmh ) Pressure ( in mb ) Visibility ( mi km ) Precip ( " mm )
12:29 am 00:29 Mostly Cloudy 72 22.2 69 20.6 91 91 NE 6 9 30.04 1017 10 16 0.00 0.00
12:53 am 00:53 Cloudy 72 22.2 69 20.6 91 91 ENE 5 7 30.05 1018 10 16 0.00 0.00
1:53 am 01:53 Cloudy 71 21.7 69 20.6 94 94 ENE 3 6 30.05 1018 9 14 0.00 0.00
2:25 am 02:25 Mostly Cloudy 71 21.7 69 20.6 94 94 E 3 6 30.04 1017 8 13 0.00 0.00
2:53 am 02:53 Mostly Clear 71 21.7 69 20.6 94 94 E 5 7 30.02 1017 8 13 0.00 0.00
3:04 am 03:04 Partly Cloudy 71 21.7 69 20.6 94 94 ENE 3 6 30.02 1016 7 11 0.00 0.00
3:25 am 03:25 Mostly Cloudy 71 21.7 68 20 90 90 E 5 7 30.02 1016 8 13 0.00 0.00
3:53 am 03:53 Mostly Cloudy 70 21.1 68 20 93 93 E 6 9 30.00 1016 7 11 0.00 0.00
4:06 am 04:06 Cloudy 70 21.1 69 20.6 97 97 ENE 6 9 30.01 1016 7 11 0.00 0.00
4:29 am 04:29 Cloudy with Mist and Fog 71 21.7 69 20.6 94 94 E 7 11 30.01 1016 6 10 0.00 0.00
4:53 am 04:53 Mostly Cloudy with Mist and Fog 71 21.7 69 20.6 94 94 E 3 6 30.00 1016 6 10 0.00 0.00
5:02 am 05:02 Partly Cloudy with Mist and Fog 70 21.1 69 20.6 97 97 ESE 3 6 30.01 1016 6 10 0.00 0.00
5:38 am 05:38 Mostly Cloudy with Mist and Fog 71 21.7 69 20.6 94 94 ESE 3 6 30.01 1016 6 10 0.00 0.00
5:53 am 05:53 Cloudy with Mist and Fog 71 21.7 69 20.6 94 94 ESE 3 6 30.02 1017 6 10 0.00 0.00
6:10 am 06:10 Cloudy with Mist and Fog 71 21.7 69 20.6 94 94 E 3 6 30.02 1016 6 10 0.00 0.00
6:53 am 06:53 Cloudy with Mist and Fog 71 21.7 69 20.6 94 94 Calm 30.02 1017 5 8 0.00 0.00
7:53 am 07:53 Cloudy with Mist and Fog 72 22.2 70 21.1 94 94 ENE 3 6 30.03 1017 3 5 0.00 0.00
8:53 am 08:53 Cloudy with Mist and Fog 73 22.8 71 21.7 94 94 ESE 3 6 30.04 1017 5 8 0.00 0.00
9:00 am 09:00 Cloudy with Mist and Fog 73 22.8 71 21.7 94 94 E 5 7 30.03 1017 5 8 0.00 0.00
9:27 am 09:27 Cloudy 74 23.3 71 21.7 91 91 VRB 3 6 30.03 1017 10 16 0.00 0.00
9:53 am 09:53 Cloudy 74 23.3 71 21.7 91 91 SSE 7 11 30.04 1017 10 16 0.00 0.00
10:27 am 10:27 Mostly Cloudy 74 23.3 71 21.7 91 91 SSE 7 11 30.04 1017 10 16 0.00 0.00
10:48 am 10:48 Cloudy with Light Rain 73 23 72 22 94 94 S 5 7 30.05 1018 10 16 0.00 0.00
10:53 am 10:53 Cloudy with Light Rain 74 23.3 71 21.7 91 91 SSE 6 9 30.06 1018 8 13 0.00 0.00
11:00 am 11:00 Cloudy with Light Rain 74 23.3 72 22.2 94 94 SSE 5 7 30.05 1018 8 13 0.00 0.00
11:53 am 11:53 Cloudy 76 24.4 72 22.2 88 88 Calm 30.05 1018 10 16 0.01 0.25
12:32 pm 12:32 Mostly Cloudy 79 26.1 72 22.2 79 79 S 6 9 30.03 1017 10 16 0.00 0.00
12:53 pm 12:53 Cloudy 78 25.6 72 22.2 82 82 ESE 3 6 30.04 1017 9 14 0.00 0.00
1:07 pm 13:07 Cloudy with Rain 76 24.4 72 22.2 88 88 S 13 20 30.04 1017 3 4 0.05 1.27
1:11 pm 13:11 Cloudy with Heavy Rain 75 23.9 72 22.2 90 90 S 13 20 30.04 1017 1 2 0.17 4.32
1:21 pm 13:21 Cloudy with Light Rain 77 25 73 22.8 88 88 S 6 9 30.03 1017 2 3 0.21 5.33
1:25 pm 13:25 Cloudy 78 25.6 74 23.3 87 87 S 6 9 30.03 1017 10 16 0.21 5.33
1:53 pm 13:53 Mostly Cloudy 79 26.1 72 22.2 79 79 VRB 5 7 30.03 1017 10 16 0.21 5.33
2:17 pm 14:17 Mostly Cloudy 81 27.2 72 22.2 74 74 S 7 11 30.01 1016 10 16 0.00 0.00
2:28 pm 14:28 Partly Cloudy 81 27.2 72 22.2 74 74 S 8 13 30.01 1016 10 16 0.00 0.00
2:53 pm 14:53 Mostly Sunny 83 28.3 72 22.2 70 70 SW 9 15 30.01 1016 10 16 0.00 0.00
3:53 pm 15:53 Cloudy 82 27.8 71 21.7 69 69 S 7 11 29.99 1016 10 16 0.00 0.00
4:53 pm 16:53 Cloudy 79 26.1 72 22.2 79 79 WNW 8 13 29.98 1015 10 16 0.00 0.00
5:00 pm 17:00 Cloudy with Thunderstorms 78 25.6 72 22.2 82 82 NNW 6 9 29.98 1015 10 16 0.00 0.00
5:15 pm 17:15 Cloudy 76 24.4 73 22.8 91 91 NNW 5 7 29.98 1015 10 16 0.00 0.00
5:53 pm 17:53 Partly Cloudy 78 25.6 72 22.2 82 82 N 3 6 29.98 1015 10 16 0.00 0.00
6:13 pm 18:13 Partly Cloudy with Nearby Thunderstorms 78 25.6 73 22.8 85 85 NW 3 6 29.99 1015 10 16 0.00 0.00
6:48 pm 18:48 Partly Cloudy 79 26 72 22 79 79 Calm 29.98 1015 10 16 0.00 0.00
6:53 pm 18:53 Partly Cloudy 78 25.6 72 22.2 82 82 NE 5 7 29.99 1016 10 16 0.00 0.00
7:53 pm 19:53 Cloudy 75 23.9 72 22.2 90 90 E 7 11 29.99 1016 10 16 0.00 0.00
8:53 pm 20:53 Cloudy 74 23.3 71 21.7 91 91 SSE 6 9 29.99 1016 10 16 0.00 0.00
9:53 pm 21:53 Clear 73 22.8 71 21.7 94 94 ESE 5 7 29.99 1016 10 16 0.00 0.00
10:53 pm 22:53 Clear 73 22.8 71 21.7 94 94 Calm 30.01 1016 10 16 0.00 0.00
11:53 pm 23:53 Clear 72 22.2 70 21.1 94 94 Calm 30.01 1016 10 16 0.00 0.00

Powered by AerisWeather